Wind_Speed
130 130 130 130 130 130 131 131 131 131 131 131 131 131 131 131 131 131 131 130 130 129 128 128 127 126 124 123 120 118 115 112 109 106 103 100 97 95 93 92 90 89 88 87 86 85 84 83 82 82 81 80 79 79 78 77 76 76 75 74 73 73 72 71 70 69 69 68 67 67 66 66 66 65 65 65 65 64 64 64 64 64 63 63 63 62
129 129 129 129 129 129 129 129 130 130 130 130 130 130 130 130 130 129 129 128 128 127 126 124 123 121 119 116 113 110 107 104 101 99 97 95 93 92 90 89 88 87 86 85 84 83 82 81 81 80 79 79 78 78 77 76 75 75 74 73 72 71 71 70 69 68 68 67 67 66 66 65 65 65 64 64 64 64 64 63 63 63 63 63 62 62
127 128 128 128 128 128 128 128 129 129 129 129 129 129 128 128 128 127 126 125 124 123 121 119 116 114 111 108 105 103 100 98 96 95 93 92 91 89 88 87 86 85 84 83 82 81 80 80 79 79 78 77 77 76 75 75 74 73 73 72 71 70 70 69 68 67 67 66 66 65 65 64 64 64 64 63 63 63 63 63 63 63 62 62 62 61
126 127 127 127 127 127 127 127 127 127 127 127 127 127 126 125 124 123 122 120 118 116 114 111 108 106 103 101 99 97 96 94 93 92 91 89 88 87 86 85 84 83 82 81 80 80 79 79 78 78 77 76 76 75 74 73 73 72 71 70 70 69 69 68 67 67 66 65 65 64 64 64 63 63 63 63 63 62 62 62 62 62 62 61 61 61
126 126 126 127 127 127 126 126 126 125 125 125 124 123 122 121 119 118 116 113 111 108 106 104 101 99 98 96 95 94 93 92 91 90 89 87 86 85 84 83 82 81 80 80 79 78 78 78 77 76 76 75 75 74 73 72 71 70 70 69 68 68 67 67 66 66 65 65 64 64 63 63 63 63 62 62 62 62 62 61 61 61 61 61 60 60
126 126 126 126 125 125 125 124 123 122 121 120 119 118 116 114 112 110 108 106 104 102 100 98 97 95 94 93 92 92 91 90 89 88 87 85 84 83 82 82 81 80 79 79 78 77 77 76 76 75 75 74 73 73 72 71 70 69 68 68 67 67 66 66 65 65 64 64 64 63 63 63 62 62 62 62 62 61 61 61 60 60 60 59 59 59
125 125 124 123 123 122 121 120 119 118 116 114 112 111 109 107 105 103 101 100 98 97 96 95 94 93 92 91 90 89 88 88 87 86 85 84 83 82 81 80 79 79 78 77 77 76 76 75 75 74 74 73 72 72 71 70 69 68 67 67 66 66 65 65 64 64 64 63 63 63 63 63 62 62 62 62 61 61 61 60 60 59 59 59 58 58
123 122 121 120 119 118 117 115 113 111 108 106 104 103 101 100 99 98 97 96 95 94 93 92 91 90 90 89 88 87 86 86 85 84 83 82 82 81 80 79 78 77 77 76 76 75 75 74 74 73 73 72 71 71 70 69 68 67 67 66 66 65 65 64 64 64 63 63 63 63 63 62 62 62 62 62 61 61 60 60 59 59 58 58 57 57
118 118 116 115 113 111 109 108 106 103 101 99 98 97 96 95 95 95 94 93 92 91 91 90 89 88 87 87 86 85 85 84 84 83 82 81 81 80 79 78 77 77 76 75 75 74 74 74 73 72 72 71 70 70 69 68 67 66 66 66 65 65 65 64 64 63 63 63 63 63 63 63 62 62 62 61 61 60 60 59 58 58 57 57 56 56
113 111 109 108 106 103 101 99 98 97 95 94 93 93 93 92 92 92 91 91 90 89 88 87 87 86 86 85 84 84 83 83 82 82 81 81 80 79 79 78 77 76 75 75 74 74 73 73 72 72 71 70 69 69 68 67 66 65 65 65 64 64 64 64 64 63 63 63 63 63 63 63 63 62 62 61 61 60 59 58 58 57 56 55 55 55
105 103 101 99 98 97 95 94 93 92 92 91 90 90 90 90 89 89 88 88 88 87 86 86 85 85 84 84 83 82 82 82 81 81 81 80 80 79 78 77 76 75 75 74 74 73 73 72 72 71 70 69 69 68 67 66 65 64 64 63 63 64 64 64 63 63 63 63 63 63 63 63 63 63 62 61 60 59 58 57 56 56 55 54 54 53
96 95 94 93 92 92 91 91 90 90 89 88 88 88 88 87 87 86 86 86 86 85 85 84 84 83 83 82 82 81 81 80 80 80 80 80 80 79 78 77 76 75 74 74 73 73 72 72 71 70 69 69 68 67 66 65 64 63 63 62 62 62 62 63 63 63 63 63 63 63 63 64 64 63 63 62 60 59 57 56 55 54 54 53 53 53
91 90 90 89 89 89 89 88 88 87 87 86 85 85 86 86 85 85 85 85 85 84 83 83 83 82 81 81 80 80 79 79 79 79 79 79 79 79 78 77 76 75 74 73 73 73 72 72 71 70 69 68 67 66 65 65 64 63 62 61 61 61 61 62 62 62 62 62 63 63 64 64 64 64 63 62 60 59 57 55 54 53 53 52 52 52
87 87 87 87 87 87 87 86 86 85 85 84 84 84 84 84 84 84 84 84 84 83 82 82 82 82 81 80 79 78 78 78 78 78 78 79 79 78 78 78 77 75 74 73 73 72 72 71 71 70 69 68 67 66 65 64 63 62 61 60 60 60 60 60 61 61 61 62 62 63 63 64 64 64 63 62 61 59 57 55 53 52 51 51 51 51
85 85 85 85 86 86 85 85 84 84 84 83 83 82 82 83 83 83 83 83 83 82 82 82 82 81 80 79 78 77 77 77 77 77 78 78 78 78 77 77 76 75 74 73 73 72 71 71 71 70 68 67 66 65 64 63 62 61 60 60 59 59 59 59 60 60 61 61 62 63 63 64 64 64 63 62 61 59 57 55 53 52 51 50 50 50
83 84 84 84 85 85 84 84 84 83 83 82 82 81 82 82 82 82 82 82 82 81 81 81 81 81 80 79 77 76 76 76 77 77 77 78 77 77 76 76 76 75 74 73 73 72 71 71 70 69 68 67 66 65 63 62 61 60 59 59 58 58 58 58 59 59 60 61 62 62 63 64 64 64 63 62 61 59 57 55 53 51 50 50 50 50
83 83 84 84 84 84 84 83 83 83 82 82 81 81 81 81 81 81 81 81 80 80 80 80 80 80 80 79 77 75 74 75 76 77 77 78 78 77 76 76 76 75 74 73 73 72 72 71 70 69 68 67 65 64 63 62 61 60 59 58 57 57 57 57 58 58 59 60 61 62 63 63 63 63 63 62 61 59 57 55 53 51 50 49 49 49
83 83 84 84 84 84 84 83 83 82 82 81 81 81 81 80 80 80 80 79 79 79 79 79 79 79 79 79 77 75 74 74 75 76 77 78 78 77 75 75 75 75 74 74 73 72 72 71 70 69 68 67 65 64 62 61 60 59 58 57 56 56 56 56 57 57 58 59 60 61 62 63 63 63 63 62 60 59 57 55 53 51 50 49 49 49
84 84 84 84 84 84 83 83 83 82 81 81 80 80 80 80 80 79 79 79 78 78 78 78 78 78 78 78 77 75 74 73 74 75 76 77 78 77 76 75 74 74 74 74 73 72 72 71 71 70 68 67 65 64 62 61 59 58 57 56 56 55 55 55 56 56 57 58 59 60 61 62 62 62 62 61 60 59 57 55 53 51 50 49 49 49
85 85 84 84 84 84 83 83 82 81 81 80 80 80 80 80 79 79 79 78 78 77 77 77 77 77 77 77 76 75 74 73 73 74 75 76 77 77 76 75 74 74 74 74 73 73 72 72 71 70 69 67 65 64 62 61 59 58 57 56 55 55 55 55 55 56 56 57 58 59 60 61 61 62 61 61 60 58 57 55 53 52 50 49 49 48
86 86 85 84 84 84 83 83 82 81 80 80 79 79 79 79 79 78 78 78 77 77 76 76 76 76 75 75 76 75 73 73 73 74 74 76 76 76 75 74 74 74 74 74 73 73 73 72 72 70 69 68 66 64 63 61 59 58 57 56 55 55 55 54 55 55 56 56 57 58 59 60 60 61 61 60 59 58 56 55 53 52 51 49 49 48
86 86 86 85 84 84 83 83 82 81 80 79 79 79 79 78 78 78 78 77 77 76 76 76 75 75 75 75 75 74 73 73 73 73 74 75 76 76 75 74 74 74 74 74 73 73 73 73 72 71 70 68 67 65 63 61 60 58 57 56 55 55 54 54 54 55 55 55 56 57 58 59 59 60 60 60 59 57 56 54 53 52 50 49 49 48
86 86 86 85 85 84 83 82 82 81 80 79 79 78 78 78 78 77 77 77 76 76 76 75 75 74 74 74 74 74 73 72 72 72 73 74 75 75 74 73 73 73 73 73 73 73 73 73 72 71 70 69 67 66 64 62 60 59 57 56 55 55 55 54 54 54 54 55 55 56 57 58 59 59 59 59 58 57 56 54 53 51 50 49 48 48
86 86 86 85 84 84 83 82 81 81 80 79 78 78 77 77 77 77 76 76 76 75 75 74 74 74 74 74 74 73 73 72 72 72 72 73 74 74 73 73 73 73 73 73 73 73 73 73 73 72 71 70 68 67 65 63 61 60 58 57 56 55 55 54 54 54 54 54 54 55 56 57 58 58 58 58 57 56 55 54 52 51 50 49 48 48
85 85 85 85 84 83 83 82 81 81 80 79 78 78 77 77 76 76 76 76 75 75 74 74 74 74 74 73 73 73 72 72 71 71 72 72 72 72 72 72 72 72 72 72 72 72 73 73 73 72 71 70 69 67 66 64 62 61 59 57 56 56 55 54 54 53 53 53 53 54 55 55 56 57 57 57 57 56 55 53 52 51 50 49 48 48
85 85 84 84 84 83 82 82 81 80 80 79 78 77 77 76 76 76 76 75 75 74 74 74 74 74 73 73 73 73 72 72 71 71 71 71 71 71 71 71 71 71 71 71 71 71 72 72 72 72 71 70 69 68 66 65 63 61 60 58 57 56 55 55 54 53 52 52 52 52 53 54 55 56 56 57 56 55 54 53 52 51 50 49 48 48
84 84 84 84 83 83 82 82 81 80 79 79 78 77 76 76 76 76 75 75 74 74 73 74 74 73 73 73 73 73 72 72 72 71 70 70 71 71 70 70 70 70 70 70 70 70 71 71 72 71 71 70 70 68 67 66 64 63 61 59 58 57 56 55 54 53 52 51 51 51 52 53 54 55 55 56 56 55 54 53 52 51 50 49 49 48
83 83 83 83 83 83 82 82 81 80 79 79 78 77 76 75 75 75 75 74 74 73 73 73 73 73 73 73 73 73 72 72 72 71 70 70 70 70 70 69 69 69 69 69 69 69 70 70 71 71 71 70 70 69 68 67 65 64 62 60 59 57 56 55 54 53 52 51 50 50 50 51 52 53 54 55 55 54 54 52 51 51 50 49 49 48
82 82 82 82 82 82 82 81 81 80 79 78 77 77 76 75 75 75 75 74 73 73 73 73 73 72 72 72 72 72 72 72 71 70 70 70 70 70 69 69 68 68 68 68 68 68 68 69 69 70 70 70 70 69 69 68 66 65 63 61 60 58 57 56 55 53 52 51 50 49 49 50 51 52 53 54 54 54 53 52 51 50 50 49 49 48
82 82 82 82 82 82 81 81 81 80 79 78 78 77 76 75 74 74 74 73 73 73 73 73 72 72 72 72 72 72 73 72 71 70 69 70 70 69 68 68 68 67 67 67 67 67 67 67 68 68 69 70 70 70 69 69 68 66 64 63 61 59 58 57 55 54 52 51 50 49 49 49 50 51 52 53 54 54 53 52 51 50 50 49 49 48
82 82 82 82 82 81 81 81 80 79 79 78 77 77 76 75 74 74 73 73 72 72 72 72 72 72 71 72 72 72 73 72 70 69 69 69 69 69 68 68 68 67 66 66 66 66 66 66 66 67 68 69 70 70 70 69 69 67 66 64 62 61 59 57 56 54 53 51 50 49 48 48 49 50 51 53 53 53 53 52 51 50 50 49 49 48
82 82 82 82 81 81 80 80 79 79 78 78 77 77 76 75 74 73 73 72 72 72 72 72 72 71 71 71 72 72 72 72 70 69 68 69 69 68 68 68 67 66 65 64 65 65 65 65 65 65 67 68 69 70 70 70 69 68 67 65 64 62 60 58 56 55 53 51 50 48 48 47 48 49 51 52 53 53 52 52 51 50 49 49 49 48
82 82 82 81 81 80 80 79 79 78 78 78 77 76 76 75 74 73 73 72 72 72 71 72 71 71 71 71 71 71 72 71 70 69 68 68 68 68 67 67 66 66 65 64 63 63 63 64 64 64 65 67 68 69 70 70 70 69 68 67 65 63 61 59 57 55 53 52 50 49 47 47 47 48 50 51 52 53 52 52 51 50 49 49 49 48
82 81 81 81 80 80 79 79 78 78 78 77 77 76 76 75 74 73 73 72 72 71 71 71 71 71 71 71 71 71 71 71 70 68 67 67 67 67 66 66 65 65 64 64 63 62 62 62 62 63 64 65 67 68 70 70 70 69 68 67 66 64 62 60 58 56 54 52 50 49 47 47 47 48 49 50 52 52 52 52 51 50 49 49 49 48
82 81 81 80 80 79 79 78 78 78 77 77 76 76 75 74 74 73 73 72 72 71 71 71 71 71 71 71 71 71 71 70 69 68 67 67 66 66 65 65 64 64 64 63 62 62 61 61 61 62 63 64 66 67 69 70 70 69 69 67 66 65 63 61 59 57 55 53 51 49 47 47 47 47 48 50 51 52 52 51 51 50 49 49 48 48
82 81 80 80 79 79 78 78 77 77 77 76 76 75 75 74 74 73 73 72 72 71 71 71 71 70 70 70 71 71 71 70 69 68 67 66 65 65 65 64 63 63 62 62 61 60 60 60 61 61 62 63 65 66 67 68 69 69 68 67 66 64 63 61 59 57 55 53 51 49 48 47 47 47 48 49 50 51 52 51 50 50 49 48 48 48
82 81 80 79 79 78 78 77 77 77 76 76 75 75 74 74 74 73 73 72 72 72 71 71 70 70 70 70 70 70 70 70 69 68 67 65 65 64 64 63 62 61 61 61 60 59 59 60 60 61 61 63 64 66 67 67 68 68 68 67 65 64 62 61 59 57 55 54 51 50 48 47 47 47 48 49 50 51 51 51 50 49 49 48 48 48
82 81 80 79 78 78 77 77 77 76 76 76 75 75 74 74 73 73 73 72 72 71 71 71 71 70 70 70 70 70 70 69 69 68 66 65 64 63 62 62 61 60 59 59 59 59 59 59 60 60 61 62 63 64 65 66 67 67 66 65 64 63 62 60 59 57 55 53 51 50 48 48 47 48 48 49 50 50 51 50 50 49 49 48 48 47
81 81 80 79 78 77 77 77 77 76 76 75 75 74 74 74 73 73 72 72 72 71 71 71 70 70 70 69 69 69 69 68 67 66 65 64 63 61 61 60 59 58 58 58 58 58 58 59 59 60 60 61 62 63 64 65 65 65 65 64 63 62 61 60 58 57 55 53 51 50 48 48 47 48 48 49 50 50 50 50 49 49 48 48 48 47
81 80 79 79 78 77 77 77 76 76 75 75 74 74 74 73 73 72 72 72 71 71 71 70 70 69 69 69 69 68 68 67 66 65 63 62 61 60 59 58 58 57 57 57 57 57 58 58 59 59 59 60 61 62 62 63 63 63 62 62 61 60 60 59 58 56 54 52 51 49 48 47 47 48 48 49 49 50 50 49 49 49 48 48 47 47
80 80 79 78 78 77 76 76 76 75 75 75 74 74 73 73 73 72 72 71 71 71 70 70 70 69 69 69 68 68 67 66 64 63 62 61 60 59 58 58 57 57 57 57 57 57 57 58 58 58 59 59 59 60 60 61 61 61 60 60 59 59 58 58 57 55 54 52 50 49 48 47 47 48 48 49 49 49 49 49 49 48 48 47 47 46
80 79 78 78 77 77 76 76 75 75 75 74 74 74 73 73 72 72 72 72 71 71 70 70 70 69 69 69 68 67 66 65 64 63 61 60 60 59 58 58 57 57 57 57 57 57 57 57 58 58 58 58 58 58 58 59 58 58 58 57 57 57 57 57 56 55 53 51 49 48 47 47 47 47 48 49 49 49 49 49 48 48 47 47 46 46
79 78 78 77 77 76 76 75 75 75 74 74 74 73 73 72 72 72 72 72 72 71 70 70 70 69 69 69 68 67 66 65 64 63 62 61 60 59 59 58 58 58 57 58 58 58 57 57 58 58 57 57 57 57 57 57 56 56 56 55 55 55 55 55 54 53 52 51 49 48 47 46 46 47 47 48 48 49 48 48 48 47 47 46 46 45
78 77 77 76 76 75 75 75 74 74 74 73 73 73 72 72 72 72 72 72 71 71 71 70 70 69 69 69 68 67 66 65 64 63 62 61 60 60 59 59 58 58 58 58 58 58 58 58 58 57 57 56 56 56 56 55 55 55 54 54 54 54 54 54 53 52 51 50 48 47 46 46 46 46 47 48 48 48 48 48 47 47 46 46 45 45
77 76 76 75 75 75 74 74 73 73 73 73 73 72 72 72 72 71 71 71 71 71 70 70 69 69 69 68 67 66 66 65 64 63 62 61 61 60 60 59 59 58 58 58 58 58 58 58 58 57 56 56 55 55 55 54 54 54 53 53 53 52 52 52 52 51 50 49 48 46 45 45 45 46 46 47 48 48 47 47 47 46 45 45 44 44
76 75 75 75 74 74 73 73 73 72 72 72 72 72 72 71 71 71 71 71 71 70 70 69 69 68 68 67 66 65 65 64 64 63 62 62 61 60 60 59 58 58 58 58 57 57 57 58 57 57 56 55 54 54 53 53 53 53 52 52 52 51 51 51 50 50 49 48 47 46 45 44 44 45 46 47 47 47 47 46 46 45 45 44 44 43
75 74 74 74 73 73 73 72 72 72 72 72 72 71 71 71 71 71 70 70 70 69 69 68 68 67 67 66 65 64 63 63 63 63 63 62 61 60 60 59 58 58 57 57 57 57 56 56 56 56 55 54 53 52 52 51 51 51 51 51 50 50 50 49 49 48 48 47 46 46 44 44 44 45 45 46 47 47 46 46 45 44 44 43 43 42
74 74 73 73 73 72 72 72 71 71 71 71 71 71 71 70 70 70 69 69 68 68 67 67 66 66 65 64 63 63 63 62 63 63 63 62 61 60 60 59 58 57 57 57 56 56 56 55 55 54 54 53 52 51 50 50 50 50 49 49 49 49 49 48 48 47 47 46 45 45 44 44 44 44 45 46 46 46 46 45 44 43 43 43 42 42
72 72 72 72 72 71 71 71 71 71 71 71 71 71 70 70 69 69 68 68 67 66 66 65 64 64 63 63 62 62 62 62 62 62 62 61 61 60 59 58 58 57 57 56 55 55 55 54 54 53 53 52 51 50 49 49 48 48 48 47 47 47 47 47 47 46 46 45 45 44 44 43 44 44 45 45 46 46 45 44 43 43 42 42 42 41
71 71 71 71 71 71 71 71 71 71 71 71 70 70 70 69 68 67 67 66 65 65 64 63 63 63 62 62 61 61 61 62 62 62 61 60 60 59 59 58 57 57 56 56 55 54 54 54 53 52 51 50 50 49 48 48 47 47 46 46 46 46 46 46 46 45 45 44 44 43 43 43 43 44 44 45 45 45 44 43 42 42 41 41 41 41
70 70 70 70 70 70 70 70 70 70 70 70 70 69 69 68 67 66 65 64 64 63 62 62 62 61 62 61 61 61 61 61 61 61 60 59 59 58 58 57 57 57 56 56 55 54 54 53 53 52 50 48 48 47 47 47 46 46 45 45 45 45 45 45 44 44 44 43 43 43 42 42 43 43 44 44 44 44 43 43 42 41 40 40 40 40
Wind_Direction
282 282 283 283 284 284 285 285 285 286 286 286 287 287 288 288 288 289 289 289 290 290 290 291 291 291 291 291 291 291 292 291 291 291 291 291 291 291 291 291 292 292 292 292 292 292 293 293 293 293 293 293 292 292 292 292 291 291 291 290 290 290 290 289 289 289 288 288 288 287 286 286 285 284 284 283 282 281 281 280 279 279 278 277 277 277
282 283 283 283 284 284 285 285 286 286 287 287 287 288 288 289 289 289 289 290 290 290 291 291 291 291 291 291 291 291 291 291 291 291 291 291 291 291 291 291 292 292 292 292 292 293 293 293 293 293 293 293 293 292 292 292 291 291 291 290 290 290 290 289 289 289 288 288 287 287 286 286 285 284 283 283 282 281 280 280 279 278 278 277 277 276
283 283 283 284 284 285 285 286 286 287 287 288 288 288 289 289 289 290 290 290 290 290 291 291 291 291 291 291 291 290 290 290 290 290 291 291 291 291 291 291 291 292 292 292 292 293 293 293 293 293 293 293 293 292 292 292 291 291 291 290 290 290 290 289 289 288 288 287 287 286 286 285 285 284 283 282 282 281 280 279 279 278 278 277 277 276
283 283 284 284 285 285 286 286 287 287 287 288 288 289 289 289 289 289 290 290 290 290 290 290 290 290 290 290 290 290 290 290 290 290 290 291 291 291 291 291 292 292 292 292 293 293 293 293 293 293 293 293 293 293 292 292 291 291 291 290 290 290 290 289 289 288 288 287 287 286 286 285 284 284 283 282 281 281 280 279 279 278 277 277 277 276
283 284 284 285 285 286 286 286 287 287 288 288 288 288 289 289 289 289 289 289 289 289 289 289 289 289 289 290 290 290 290 290 290 290 291 291 291 291 292 292 292 292 292 293 293 293 294 294 294 294 294 294 293 293 293 292 292 291 291 291 290 290 290 289 289 288 288 287 287 286 285 285 284 283 282 282 281 280 280 279 278 278 277 277 276 276
284 284 284 285 285 286 286 287 287 287 288 288 288 288 288 288 288 289 289 289 289 289 289 289 289 289 289 289 290 290 290 290 291 291 291 291 292 292 292 292 292 293 293 293 294 294 294 294 294 294 294 294 294 293 293 293 292 292 291 291 291 290 290 289 289 288 288 287 287 286 285 285 284 283 282 281 281 280 279 279 278 278 277 277 276 276
284 284 285 285 286 286 286 286 287 287 287 287 288 288 288 288 288 288 288 288 288 288 289 289 289 289 289 290 290 290 290 291 291 291 291 292 292 292 292 292 293 293 293 294 294 294 294 294 294 295 294 294 294 294 294 293 293 293 292 292 291 291 290 290 289 288 288 287 287 286 285 284 284 283 282 281 281 280 279 279 278 278 277 277 276 276
284 285 285 285 286 286 286 286 286 287 287 287 287 287 287 287 288 288 288 288 288 288 289 289 289 289 289 290 290 290 291 291 291 292 292 292 292 292 292 293 293 293 294 294 294 294 295 295 295 295 295 295 294 294 294 294 293 293 293 292 292 291 291 290 289 289 288 287 287 286 285 284 284 283 282 281 281 280 280 279 278 278 277 277 276 275
284 285 285 285 285 286 286 286 286 286 286 287 287 287 287 287 287 288 288 288 288 288 289 289 289 289 290 290 290 291 291 292 292 292 292 292 292 292 293 293 293 293 294 294 294 295 295 295 295 295 295 295 295 294 294 294 294 293 293 293 292 292 291 291 290 289 288 288 287 286 285 284 284 283 282 282 281 281 280 279 279 278 277 277 276 275
284 284 285 285 285 285 285 286 286 286 286 287 287 287 287 288 288 288 288 288 288 288 289 289 289 290 290 290 291 291 292 292 292 293 293 293 293 293 293 293 293 294 294 294 295 295 295 295 295 295 295 295 294 294 294 294 294 293 293 293 292 292 291 291 290 289 289 288 287 286 285 285 284 283 282 282 281 281 280 280 279 279 278 277 276 275
284 284 284 285 285 285 285 286 286 286 287 287 287 287 288 288 288 289 289 289 289 289 289 289 290 290 291 291 291 292 292 293 293 293 293 293 293 293 293 293 294 294 294 295 295 295 295 295 295 294 294 294 294 294 294 294 293 293 292 292 291 291 291 290 290 289 289 288 287 286 286 285 284 284 283 282 282 281 281 280 279 279 278 277 276 275
284 284 284 285 285 286 286 286 287 287 287 288 288 288 288 289 289 289 290 290 290 290 290 290 290 291 291 291 292 292 293 293 293 294 294 294 293 293 294 294 294 294 295 295 295 295 294 294 294 294 294 294 294 294 293 293 293 292 292 291 291 290 290 289 289 288 288 287 287 286 286 285 285 284 284 283 282 282 281 280 280 279 278 277 276 275
284 285 285 286 286 287 287 287 288 288 288 289 289 290 290 290 290 290 290 290 290 291 291 291 291 291 291 292 292 293 293 293 294 294 294 294 294 294 294 294 294 295 295 295 294 294 294 294 294 294 294 294 293 293 293 293 292 292 292 291 290 290 289 288 288 288 287 287 286 285 285 285 284 284 284 283 283 282 282 281 280 279 278 277 276 274
285 286 286 287 287 288 288 289 289 290 290 290 290 290 291 291 291 291 291 291 291 291 291 292 292 292 292 292 292 293 293 294 294 294 294 294 294 294 294 294 294 294 295 294 294 294 294 294 294 294 293 293 293 293 293 292 292 292 291 290 290 289 288 288 287 287 286 286 285 285 285 284 284 284 284 284 283 283 282 281 280 279 278 277 275 274
287 287 288 289 289 289 290 290 290 291 290 291 291 291 291 291 291 291 291 292 292 292 292 292 292 292 292 292 293 293 294 294 294 294 294 293 293 293 294 294 294 294 294 294 294 294 294 293 293 293 293 293 293 293 292 292 292 291 291 290 289 288 288 287 286 286 285 285 285 284 284 284 284 284 284 284 284 283 283 282 281 279 278 276 275 273
288 289 290 290 291 291 291 291 291 291 291 291 291 291 291 291 291 292 292 292 292 292 293 293 293 293 293 293 293 293 294 294 294 294 294 293 293 293 293 293 294 294 294 294 294 293 293 293 293 293 293 293 293 292 292 292 291 291 290 289 289 288 287 286 286 285 284 284 284 284 284 284 284 284 284 284 284 283 283 282 281 280 278 276 275 273
290 290 291 291 292 292 292 292 292 291 291 291 291 291 291 292 292 292 292 292 292 292 292 293 293 293 293 293 293 293 294 294 294 294 294 293 293 293 293 293 293 294 294 294 293 293 293 293 293 292 292 292 292 292 292 291 291 290 289 289 288 287 286 285 285 284 284 283 283 283 283 283 283 283 284 284 284 283 283 282 281 280 278 276 274 273
290 291 291 292 292 292 292 292 292 292 292 292 292 292 292 292 292 292 292 292 292 292 292 292 292 292 293 293 293 293 294 294 294 294 294 293 293 293 293 293 293 294 294 294 293 293 293 293 293 292 292 292 292 292 292 291 290 290 289 288 287 286 285 285 284 283 283 282 282 282 282 282 283 283 283 283 284 283 283 282 281 280 278 276 274 273
291 291 291 292 292 292 292 292 292 292 292 292 292 292 292 292 292 292 292 292 292 292 292 292 292 292 292 293 293 293 293 294 294 294 293 293 293 293 293 293 293 294 294 293 293 293 293 293 293 292 292 292 292 292 292 291 290 289 289 288 287 286 285 284 283 282 282 281 281 281 281 282 282 282 283 283 283 283 283 282 281 280 278 276 274 273
291 291 291 292 292 292 292 292 292 292 292 292 292 292 292 292 292 292 292 292 292 292 292 292 292 292 292 292 292 293 293 293 293 293 293 293 293 293 293 293 294 294 294 293 293 293 293 293 293 293 293 293 293 292 292 291 290 289 288 287 286 285 284 283 283 282 281 281 281 281 281 281 281 282 282 282 283 283 282 282 281 279 278 276 274 273
291 291 291 292 292 292 292 292 291 291 291 291 291 291 291 292 292 292 292 292 292 292 292 291 291 291 292 292 292 292 293 293 293 293 293 292 292 292 293 293 294 294 294 293 293 293 293 293 293 293 293 293 293 292 292 291 290 289 288 287 286 285 284 283 282 282 281 280 280 280 280 281 281 281 282 282 282 282 282 281 280 279 278 276 274 273
290 291 291 291 292 292 292 292 291 291 291 291 291 291 291 292 292 292 292 292 292 292 292 291 291 291 291 291 291 292 292 292 292 292 292 292 292 292 293 293 293 293 293 293 293 293 293 293 293 293 293 293 293 292 292 291 290 289 288 287 286 285 284 283 282 281 281 280 280 280 280 280 281 281 281 281 282 281 281 281 280 279 277 276 274 272
290 290 290 291 291 292 292 292 292 291 291 291 291 291 291 292 292 292 292 292 292 292 291 291 291 291 291 291 291 291 292 292 292 292 292 292 292 292 293 293 293 293 293 293 293 293 293 293 293 293 293 293 293 293 292 291 290 289 288 287 286 285 284 283 282 281 281 280 280 280 280 280 280 281 281 281 281 281 281 280 279 278 277 276 274 272
289 289 290 290 291 291 291 291 291 291 291 291 291 291 291 291 292 292 292 292 292 291 291 291 291 291 291 291 291 291 291 291 291 291 291 291 291 292 292 292 293 292 292 293 293 293 293 293 293 293 293 293 293 293 292 291 290 289 288 287 286 285 284 283 282 281 281 280 280 279 279 280 280 280 280 281 281 280 280 280 279 278 277 275 274 272
289 289 289 290 290 291 291 291 291 291 291 291 291 291 291 291 292 292 292 291 291 291 291 291 291 291 290 291 291 291 291 291 291 291 291 291 291 291 291 292 292 292 292 292 292 292 293 293 293 293 293 293 293 293 292 291 290 289 288 287 286 285 284 283 282 281 280 280 279 279 279 279 279 280 280 280 280 280 280 279 278 278 276 275 273 272
288 289 289 289 290 290 291 291 291 291 291 291 291 291 291 292 292 292 291 291 291 291 291 291 290 290 290 291 291 291 291 291 291 291 291 291 291 291 291 291 291 291 291 291 292 292 292 292 292 293 293 293 293 292 292 291 290 289 288 287 286 285 284 283 282 281 280 280 279 279 279 279 279 279 279 280 280 279 279 279 278 277 276 275 273 272
288 289 289 289 290 290 290 291 291 291 291 291 291 291 291 292 292 291 291 291 291 291 291 291 290 290 290 291 291 291 291 291 290 290 290 290 290 290 290 291 291 291 291 291 291 291 292 292 292 292 293 293 292 292 291 291 290 289 288 287 286 285 284 284 283 282 281 280 279 279 278 278 278 279 279 279 279 279 279 278 278 277 276 275 273 271
288 288 289 289 289 290 290 290 290 291 291 291 291 291 291 291 291 291 291 291 291 291 290 290 290 290 290 290 291 291 291 290 290 290 290 290 290 290 290 290 290 290 290 291 291 291 291 292 292 292 293 292 292 292 291 291 290 289 288 287 287 286 285 284 283 283 282 281 280 279 279 278 278 278 278 279 279 278 278 278 277 276 275 274 273 271
288 288 288 289 289 289 290 290 290 291 291 291 291 291 291 291 291 291 291 291 291 290 290 290 290 290 290 290 290 290 290 290 290 290 291 290 290 290 290 290 290 290 290 290 291 291 291 291 292 292 292 292 292 292 291 290 290 289 288 288 287 287 286 285 284 284 283 282 281 280 279 279 278 278 278 278 278 278 278 277 277 276 275 274 273 271
288 288 288 288 289 289 290 290 290 290 291 291 291 291 291 290 290 290 290 290 290 290 290 290 290 290 290 290 290 290 290 290 290 290 290 290 290 290 290 290 290 290 290 290 291 291 291 291 292 292 292 292 292 291 291 290 290 289 289 288 288 287 286 286 285 284 284 283 282 281 280 279 279 278 278 278 278 278 277 276 276 275 274 273 272 271
288 288 288 288 289 289 289 290 290 290 290 291 291 290 290 290 290 290 290 290 289 289 289 289 289 289 290 290 290 290 290 290 290 290 290 290 290 290 290 290 290 290 290 290 291 291 291 292 292 292 292 292 292 291 291 290 290 289 289 288 288 287 287 286 286 285 284 283 282 281 280 279 279 278 278 278 278 277 277 276 275 274 273 273 272 271
287 288 288 288 288 289 289 289 290 290 290 290 290 290 290 290 290 290 289 289 289 289 289 289 289 289 289 290 290 290 290 290 290 290 290 290 290 290 290 290 290 290 290 290 291 291 291 291 292 292 292 291 291 291 290 289 289 289 289 289 288 288 287 287 286 286 285 284 283 282 281 280 279 278 278 277 277 277 276 275 275 274 273 272 271 270
287 287 287 288 288 288 289 289 290 290 290 290 290 290 290 290 290 289 289 289 289 289 289 289 289 289 290 290 289 289 289 289 290 290 290 290 290 290 290 290 290 290 290 290 290 290 291 291 291 291 291 290 290 290 289 289 288 288 288 288 288 288 287 287 287 286 285 285 284 283 281 280 279 278 277 277 277 276 276 275 274 273 272 272 271 270
287 287 287 287 288 288 289 289 290 290 290 290 290 290 290 290 290 289 289 289 289 289 289 289 289 290 290 290 290 290 289 289 290 290 290 290 290 290 290 290 290 290 290 290 290 290 290 290 290 290 289 289 288 288 287 287 287 287 287 287 287 287 287 287 287 286 286 285 284 283 282 281 279 278 277 276 276 276 275 274 274 273 272 271 270 270
286 287 287 287 288 288 289 289 289 289 289 289 289 289 289 289 289 289 289 289 289 289 289 289 289 290 290 290 290 290 290 290 290 290 290 289 289 290 290 290 290 290 290 290 290 290 290 290 289 288 288 287 286 285 285 285 286 286 286 286 286 287 287 287 287 287 286 286 285 284 283 281 280 278 277 276 275 275 274 274 273 272 271 270 270 269
286 286 287 287 288 288 289 289 289 289 289 289 289 289 289 289 289 289 289 289 289 289 289 289 290 290 290 290 290 290 290 290 290 290 289 289 289 289 289 289 290 290 290 290 290 290 289 289 288 287 286 285 284 284 283 284 284 284 285 285 285 286 286 286 286 286 286 286 285 284 283 282 280 278 277 275 275 274 273 273 273 272 271 270 269 269
286 287 287 287 288 288 289 289 289 289 289 289 289 289 289 289 289 289 289 289 289 289 290 290 290 290 290 290 290 290 290 290 290 290 289 289 289 289 289 289 289 289 289 289 289 288 287 287 285 284 283 283 282 282 282 282 282 283 283 284 285 285 285 286 286 286 285 285 285 284 283 282 280 278 276 275 274 273 273 272 272 271 271 270 269 268
286 287 287 288 288 288 289 289 289 288 288 288 288 288 288 288 288 288 289 289 289 289 290 290 290 290 290 290 290 290 289 289 289 289 289 289 289 289 289 289 289 288 288 288 287 286 285 284 283 282 281 280 280 280 281 281 281 282 282 283 284 284 285 285 285 285 285 284 284 284 283 281 280 278 276 275 274 273 272 272 271 271 270 270 269 268
286 287 287 288 288 288 288 288 288 288 288 288 288 288 288 288 288 288 288 289 289 289 289 290 290 290 290 290 289 289 289 289 289 289 289 289 289 289 288 288 288 287 286 285 284 283 283 281 281 280 279 279 279 279 279 280 280 281 282 282 283 283 284 284 284 284 284 284 283 283 281 280 279 277 276 274 273 272 272 271 271 270 270 269 269 268
286 287 287 288 288 288 288 288 288 288 288 288 288 288 288 288 288 288 288 289 289 289 289 290 290 290 290 290 289 289 289 288 288 288 288 289 288 288 288 287 286 285 284 283 282 281 281 280 279 278 278 278 278 278 279 279 279 280 281 282 282 282 283 283 283 283 283 283 282 281 281 279 278 276 275 274 273 272 271 271 270 270 270 269 268 268
286 287 287 288 288 288 288 288 288 288 288 288 288 288 288 288 288 289 289 289 289 290 290 290 290 290 290 290 290 290 289 289 289 289 289 289 289 288 287 286 285 284 284 282 282 281 280 280 279 279 278 278 278 278 278 279 279 280 280 281 281 282 282 282 282 282 282 281 281 280 279 278 277 276 274 273 272 271 271 270 270 270 269 269 268 268
286 287 287 287 287 288 288 288 288 288 288 288 288 288 288 288 289 289 290 290 290 291 291 291 292 292 292 291 291 291 291 291 291 291 290 290 289 288 287 286 285 284 284 283 282 282 281 281 280 280 279 279 279 279 279 279 279 280 280 280 280 280 280 280 281 281 281 281 280 279 278 277 276 275 273 272 271 271 270 270 269 269 269 268 268 267
286 287 287 287 287 287 287 287 287 287 287 288 288 288 288 289 289 290 290 291 291 291 292 292 292 293 293 293 292 292 292 292 292 292 291 290 289 288 288 287 286 285 285 284 284 283 282 282 281 281 281 280 280 280 280 280 280 280 280 280 280 280 280 280 280 280 280 280 279 278 277 276 275 274 272 271 271 270 270 269 269 269 268 268 267 267
286 286 286 286 287 287 287 287 287 287 287 287 288 288 289 289 290 290 291 291 291 292 292 293 293 293 293 293 293 293 293 293 292 292 291 290 289 288 287 287 286 286 285 285 285 284 284 283 282 282 282 281 281 281 281 281 280 280 280 279 279 279 279 279 279 279 279 279 278 277 276 275 274 273 271 270 270 269 269 269 268 268 268 267 267 266
286 286 286 286 286 286 286 286 286 287 287 287 288 288 289 289 290 290 291 291 292 292 293 293 293 293 293 293 293 294 293 293 292 291 290 289 288 287 287 286 286 286 285 285 285 284 284 284 283 283 282 282 282 281 281 281 280 280 280 279 279 279 279 279 279 279 278 278 277 277 275 274 273 272 271 270 269 269 268 268 268 267 267 267 266 266
285 285 285 285 286 286 286 286 286 286 287 287 287 288 288 289 289 290 290 291 292 292 292 293 293 293 293 293 294 293 293 292 292 290 289 288 287 287 286 286 286 286 285 285 284 284 284 283 283 283 283 282 282 281 281 281 280 280 280 279 279 279 278 278 278 278 278 277 277 276 274 273 272 271 270 269 268 268 267 267 267 267 267 266 266 265
285 285 285 285 285 286 286 286 286 286 287 287 287 288 288 289 289 290 290 291 292 292 292 293 293 293 293 293 293 293 292 292 290 289 288 287 287 286 286 286 286 285 285 285 285 284 284 283 283 283 283 282 282 281 280 280 280 280 279 279 279 278 278 277 277 277 276 276 275 275 273 272 271 270 269 268 267 267 267 267 266 266 266 266 265 265
284 285 285 285 285 285 285 286 286 286 286 287 287 288 288 289 289 290 291 291 292 292 292 293 293 293 293 293 292 292 291 290 289 288 287 287 287 287 287 286 286 286 285 285 285 285 284 284 284 283 283 282 282 281 281 280 280 279 279 279 278 278 277 277 276 276 275 275 274 273 272 271 270 269 268 267 267 267 266 266 266 266 265 265 264 264
284 284 285 285 285 285 285 285 286 286 286 287 287 288 288 289 290 290 291 291 292 292 292 293 293 293 293 292 291 290 289 288 287 287 286 286 287 287 287 287 287 287 286 286 285 285 285 284 284 283 283 282 282 282 281 281 280 280 279 278 278 277 277 276 275 275 274 273 273 272 271 270 269 268 267 266 266 266 266 266 266 265 265 264 264 263
284 284 284 284 284 285 285 285 286 286 286 287 287 288 289 289 290 290 291 292 292 292 293 293 293 293 292 291 290 289 288 287 286 286 286 286 287 287 287 287 287 287 287 287 286 286 285 285 284 283 282 282 282 282 282 281 280 280 279 278 278 277 276 275 275 274 273 272 271 271 270 269 268 267 266 266 266 266 266 265 265 265 264 264 263 263
283 283 284 284 284 284 285 285 286 286 287 287 288 289 289 290 290 291 291 292 293 293 293 293 293 292 291 290 289 288 287 287 287 287 287 287 287 288 288 288 288 288 288 287 287 287 286 285 284 283 282 281 282 282 282 282 281 280 280 278 277 276 275 275 274 273 272 271 271 270 269 268 267 266 266 266 265 265 265 265 264 264 263 263 263 262
Height
10511 10508 10506 10504 10504 10502 10500 10498 10496 10495 10493 10490 10487 10486 10484 10482 10480 10477 10475 10473 10471 10469 10467 10465 10463 10461 10459 10456 10454 10452 10450 10448 10446 10444 10442 10441 10439 10437 10436 10434 10432 10431 10429 10427 10426 10424 10422 10420 10418 10416 10414 10413 10411 10410 10408 10407 10406 10404 10402 10401 10400 10399 10397 10397 10396 10394 10393 10392 10391 10390 10389 10388 10387 10386 10386 10385 10384 10383 10382 10382 10381 10381 10381 10380 10380 10380
10503 10501 10499 10497 10496 10495 10493 10490 10488 10487 10486 10482 10479 10477 10476 10474 10471 10469 10466 10464 10462 10461 10459 10457 10454 10452 10450 10448 10446 10444 10442 10440 10439 10437 10436 10434 10432 10431 10429 10427 10426 10424 10422 10421 10419 10417 10415 10413 10411 10409 10408 10406 10404 10403 10402 10400 10399 10397 10396 10395 10394 10392 10391 10390 10389 10388 10387 10386 10385 10384 10383 10382 10381 10380 10379 10379 10378 10377 10377 10376 10376 10375 10375 10374 10374 10374
10495 10494 10492 10489 10488 10487 10486 10483 10481 10479 10477 10475 10472 10469 10467 10465 10463 10461 10459 10456 10454 10452 10450 10449 10447 10444 10442 10440 10438 10436 10434 10433 10431 10430 10428 10427 10425 10424 10422 10421 10419 10417 10416 10414 10412 10411 10409 10407 10405 10403 10401 10400 10398 10397 10395 10394 10392 10391 10389 10388 10387 10386 10385 10384 10382 10382 10381 10380 10379 10377 10377 10376 10375 10374 10373 10372 10372 10371 10371 10371 10370 10369 10369 10369 10369 10369
10487 10486 10484 10482 10481 10480 10478 10476 10474 10472 10469 10467 10464 10462 10459 10457 10455 10453 10451 10449 10447 10445 10442 10441 10439 10437 10435 10433 10431 10429 10427 10426 10424 10423 10421 10420 10419 10417 10416 10414 10412 10411 10409 10407 10406 10404 10402 10401 10399 10397 10395 10394 10392 10391 10389 10387 10386 10385 10384 10382 10381 10379 10379 10377 10376 10376 10374 10374 10372 10371 10371 10370 10369 10368 10367 10367 10366 10366 10365 10364 10364 10364 10364 10364 10363 10363
10479 10479 10477 10475 10473 10472 10471 10469 10467 10466 10462 10460 10457 10454 10452 10450 10447 10445 10443 10441 10439 10437 10436 10434 10432 10430 10428 10426 10424 10422 10421 10419 10417 10416 10414 10413 10412 10411 10409 10407 10406 10404 10402 10401 10399 10397 10396 10394 10392 10391 10389 10387 10386 10384 10382 10381 10380 10379 10377 10376 10375 10374 10372 10371 10370 10369 10368 10367 10366 10366 10364 10364 10362 10362 10361 10361 10360 10359 10359 10359 10358 10358 10358 10358 10358 10358
10471 10471 10469 10467 10466 10464 10462 10461 10460 10458 10456 10452 10450 10447 10445 10442 10440 10438 10436 10434 10432 10431 10429 10427 10425 10423 10421 10419 10417 10416 10414 10412 10411 10409 10408 10406 10405 10404 10402 10401 10399 10397 10396 10394 10393 10391 10389 10387 10386 10384 10382 10381 10379 10377 10376 10375 10374 10372 10371 10370 10369 10367 10366 10365 10364 10363 10362 10361 10360 10359 10358 10357 10357 10356 10355 10354 10354 10354 10353 10353 10352 10352 10352 10352 10352 10352
10463 10462 10461 10460 10458 10457 10455 10454 10452 10451 10448 10446 10442 10440 10438 10436 10433 10431 10429 10427 10425 10424 10422 10420 10419 10417 10415 10413 10411 10409 10407 10406 10404 10402 10401 10400 10399 10397 10396 10394 10392 10391 10390 10388 10387 10385 10383 10381 10380 10378 10376 10374 10373 10371 10370 10369 10367 10366 10365 10364 10362 10361 10360 10359 10358 10357 10356 10355 10354 10353 10352 10351 10351 10350 10349 10349 10348 10348 10347 10347 10347 10347 10347 10347 10347 10347
10456 10454 10453 10452 10451 10449 10447 10446 10445 10444 10442 10439 10436 10433 10431 10429 10426 10424 10422 10420 10418 10417 10415 10413 10411 10410 10408 10407 10404 10402 10401 10399 10397 10396 10394 10393 10392 10391 10389 10387 10386 10385 10384 10382 10381 10379 10377 10376 10374 10372 10370 10368 10367 10365 10364 10362 10361 10360 10359 10357 10356 10355 10354 10353 10352 10351 10350 10349 10348 10347 10346 10346 10344 10344 10343 10343 10342 10342 10342 10342 10342 10342 10341 10341 10341 10341
10449 10447 10445 10444 10442 10441 10439 10437 10437 10436 10435 10432 10429 10426 10424 10422 10419 10417 10415 10413 10412 10410 10409 10407 10404 10403 10401 10400 10399 10396 10394 10392 10391 10389 10388 10386 10385 10384 10382 10381 10380 10379 10377 10376 10374 10373 10371 10369 10367 10366 10364 10362 10361 10359 10358 10357 10356 10354 10353 10352 10351 10349 10348 10347 10346 10345 10344 10343 10342 10341 10340 10339 10339 10338 10337 10337 10337 10337 10336 10336 10336 10336 10336 10336 10336 10336
10442 10440 10439 10437 10435 10434 10432 10431 10429 10429 10428 10426 10423 10420 10417 10415 10412 10410 10408 10406 10404 10403 10402 10400 10398 10396 10394 10393 10392 10391 10389 10386 10384 10383 10381 10380 10378 10377 10376 10374 10374 10372 10371 10370 10369 10367 10365 10364 10362 10360 10359 10357 10356 10354 10353 10352 10351 10349 10348 10347 10346 10344 10342 10341 10340 10339 10338 10337 10336 10335 10334 10333 10332 10332 10331 10331 10331 10331 10331 10331 10331 10331 10331 10331 10331 10331
10435 10433 10432 10430 10428 10427 10426 10424 10422 10422 10421 10419 10416 10413 10411 10409 10407 10404 10401 10399 10397 10396 10395 10393 10392 10390 10388 10386 10386 10384 10382 10381 10378 10376 10375 10373 10372 10370 10369 10368 10367 10366 10365 10364 10362 10361 10359 10357 10356 10354 10353 10352 10351 10349 10347 10346 10346 10344 10343 10342 10341 10339 10337 10336 10335 10334 10332 10331 10330 10329 10327 10327 10326 10326 10325 10325 10325 10325 10326 10326 10326 10326 10326 10326 10326 10326
10428 10427 10425 10423 10421 10419 10418 10417 10416 10415 10414 10412 10409 10406 10404 10402 10400 10398 10395 10392 10390 10389 10387 10386 10385 10384 10382 10381 10379 10378 10377 10374 10372 10370 10368 10366 10365 10364 10362 10361 10361 10359 10359 10357 10356 10355 10353 10351 10350 10349 10347 10346 10345 10344 10342 10341 10340 10339 10338 10337 10336 10334 10332 10331 10330 10328 10327 10326 10324 10323 10322 10321 10320 10319 10319 10319 10319 10319 10319 10320 10320 10321 10321 10320 10320 10320
10422 10421 10419 10417 10414 10412 10411 10410 10409 10407 10406 10405 10403 10400 10397 10395 10393 10391 10389 10386 10384 10382 10381 10379 10377 10376 10376 10375 10374 10372 10371 10368 10366 10364 10362 10360 10359 10357 10356 10355 10354 10353 10352 10351 10350 10349 10347 10346 10344 10342 10342 10341 10339 10338 10337 10336 10335 10334 10333 10332 10331 10329 10328 10326 10325 10323 10322 10321 10319 10317 10316 10315 10314 10313 10312 10312 10312 10313 10314 10314 10314 10315 10315 10315 10315 10315
10416 10414 10412 10410 10407 10406 10405 10404 10402 10401 10399 10398 10396 10394 10391 10389 10387 10384 10382 10379 10377 10376 10376 10373 10371 10369 10369 10369 10368 10367 10365 10362 10360 10357 10356 10354 10352 10352 10351 10349 10347 10347 10346 10345 10344 10342 10341 10340 10338 10336 10336 10335 10334 10332 10332 10331 10330 10329 10327 10327 10326 10324 10322 10321 10320 10318 10317 10315 10314 10312 10311 10309 10309 10307 10307 10307 10307 10307 10307 10308 10309 10309 10309 10309 10309 10309
10409 10407 10406 10403 10401 10399 10398 10397 10396 10394 10392 10391 10390 10387 10386 10383 10381 10379 10376 10374 10371 10371 10369 10367 10364 10362 10361 10362 10362 10361 10360 10357 10354 10351 10349 10347 10346 10346 10345 10343 10341 10340 10340 10339 10337 10336 10336 10334 10332 10331 10329 10329 10328 10327 10326 10325 10324 10324 10322 10321 10320 10319 10317 10316 10315 10313 10312 10310 10309 10307 10306 10304 10303 10302 10301 10301 10301 10301 10302 10302 10303 10304 10304 10304 10304 10304
10403 10401 10399 10396 10394 10392 10391 10391 10389 10387 10386 10384 10383 10382 10379 10377 10374 10373 10371 10369 10366 10365 10363 10361 10358 10356 10354 10355 10356 10356 10355 10352 10349 10346 10342 10340 10339 10339 10340 10337 10335 10333 10333 10332 10331 10330 10329 10327 10326 10324 10324 10323 10322 10321 10321 10320 10319 10318 10317 10316 10315 10314 10312 10311 10310 10308 10307 10305 10303 10302 10301 10299 10297 10297 10296 10296 10296 10296 10296 10296 10297 10297 10298 10299 10299 10299
10397 10394 10392 10391 10388 10386 10385 10384 10383 10381 10380 10379 10377 10376 10374 10371 10369 10367 10366 10364 10362 10360 10357 10356 10353 10350 10347 10347 10348 10350 10351 10347 10343 10340 10337 10334 10332 10332 10334 10332 10329 10327 10326 10326 10324 10324 10322 10321 10319 10318 10317 10317 10316 10316 10315 10314 10314 10312 10312 10311 10310 10309 10307 10306 10305 10303 10302 10300 10299 10297 10296 10294 10292 10292 10291 10290 10290 10290 10290 10291 10291 10292 10292 10293 10293 10294
10390 10388 10386 10384 10382 10381 10379 10377 10376 10375 10374 10372 10371 10369 10367 10365 10364 10362 10360 10358 10357 10354 10352 10351 10348 10346 10343 10341 10340 10342 10345 10343 10339 10335 10332 10328 10326 10325 10326 10326 10324 10321 10319 10318 10317 10317 10316 10314 10312 10312 10311 10311 10310 10309 10309 10308 10307 10307 10306 10306 10304 10304 10302 10301 10300 10298 10297 10295 10294 10292 10291 10289 10287 10287 10286 10285 10285 10284 10285 10285 10286 10286 10287 10287 10288 10288
10384 10382 10381 10379 10377 10375 10373 10371 10370 10369 10368 10366 10365 10363 10361 10359 10357 10356 10354 10353 10351 10349 10347 10345 10342 10340 10339 10336 10334 10335 10337 10337 10334 10331 10327 10323 10320 10319 10319 10319 10318 10316 10313 10312 10311 10310 10309 10307 10306 10305 10304 10304 10304 10303 10302 10302 10302 10301 10301 10300 10299 10298 10297 10296 10294 10293 10292 10291 10289 10287 10286 10284 10283 10282 10281 10280 10279 10279 10279 10280 10280 10281 10281 10282 10282 10282
10377 10376 10374 10373 10371 10369 10367 10365 10364 10364 10362 10361 10359 10357 10355 10353 10352 10350 10349 10347 10346 10344 10342 10340 10337 10335 10334 10331 10329 10329 10330 10331 10328 10325 10322 10319 10315 10312 10313 10313 10312 10309 10307 10305 10304 10303 10302 10300 10299 10298 10297 10297 10297 10296 10296 10296 10296 10295 10294 10294 10293 10292 10291 10291 10289 10288 10287 10286 10284 10282 10281 10279 10278 10277 10276 10275 10274 10274 10274 10274 10275 10275 10276 10276 10277 10277
10371 10369 10367 10367 10366 10363 10361 10359 10358 10357 10357 10356 10354 10351 10349 10348 10346 10344 10343 10342 10340 10338 10336 10334 10332 10330 10329 10326 10324 10322 10324 10324 10322 10319 10317 10314 10310 10307 10307 10307 10306 10304 10301 10299 10298 10297 10295 10293 10292 10291 10291 10290 10290 10289 10289 10289 10289 10289 10288 10288 10287 10286 10286 10285 10284 10283 10282 10281 10279 10277 10276 10275 10273 10272 10271 10270 10269 10269 10269 10269 10269 10270 10271 10271 10271 10272
10365 10362 10361 10361 10359 10357 10355 10353 10352 10351 10351 10350 10348 10346 10344 10342 10341 10338 10337 10336 10334 10332 10331 10329 10327 10325 10324 10321 10319 10317 10318 10318 10317 10314 10312 10309 10305 10302 10302 10302 10301 10298 10296 10293 10292 10291 10289 10287 10285 10284 10284 10283 10283 10282 10282 10282 10282 10282 10282 10282 10281 10280 10279 10279 10278 10277 10277 10276 10274 10273 10271 10270 10269 10267 10266 10265 10264 10264 10264 10264 10264 10264 10265 10266 10266 10266
10359 10357 10355 10354 10353 10351 10349 10348 10346 10346 10345 10344 10342 10340 10339 10337 10335 10333 10331 10329 10328 10326 10324 10323 10321 10320 10318 10316 10314 10312 10312 10312 10311 10310 10307 10304 10300 10297 10297 10297 10296 10293 10291 10289 10286 10284 10282 10281 10279 10277 10277 10276 10276 10276 10276 10275 10276 10276 10276 10275 10275 10274 10274 10273 10272 10272 10271 10271 10269 10268 10267 10265 10264 10262 10261 10260 10259 10259 10259 10259 10259 10259 10260 10260 10261 10261
10354 10351 10349 10348 10347 10346 10344 10342 10341 10339 10338 10337 10336 10335 10333 10332 10330 10328 10326 10324 10322 10321 10319 10317 10316 10313 10311 10310 10309 10307 10306 10306 10306 10304 10302 10299 10296 10294 10293 10292 10290 10287 10285 10284 10282 10279 10277 10275 10273 10272 10271 10269 10269 10269 10268 10268 10268 10268 10269 10269 10268 10268 10267 10267 10267 10267 10266 10266 10264 10264 10262 10261 10259 10257 10256 10255 10254 10254 10254 10254 10254 10254 10254 10255 10255 10256
10348 10346 10344 10342 10341 10340 10338 10337 10335 10334 10332 10331 10330 10329 10327 10326 10325 10322 10321 10319 10317 10315 10314 10312 10309 10307 10305 10304 10302 10301 10299 10300 10299 10298 10296 10294 10292 10290 10288 10287 10286 10283 10280 10279 10277 10275 10272 10269 10267 10266 10264 10263 10262 10262 10261 10261 10261 10261 10262 10262 10262 10262 10262 10261 10261 10261 10261 10261 10260 10259 10257 10256 10254 10252 10251 10250 10249 10249 10248 10248 10249 10249 10249 10249 10250 10250
10343 10341 10339 10337 10335 10334 10332 10331 10329 10328 10327 10326 10324 10323 10322 10321 10319 10317 10314 10312 10311 10310 10308 10306 10303 10301 10299 10299 10296 10294 10294 10293 10293 10292 10291 10289 10287 10285 10283 10282 10281 10279 10276 10274 10272 10271 10268 10265 10262 10260 10259 10257 10256 10256 10255 10254 10254 10254 10255 10255 10256 10256 10256 10256 10256 10256 10256 10255 10255 10254 10252 10251 10249 10247 10246 10245 10244 10244 10243 10243 10243 10244 10244 10244 10244 10244
10337 10335 10333 10331 10329 10328 10326 10325 10324 10322 10321 10320 10319 10318 10317 10316 10313 10311 10308 10307 10306 10304 10302 10300 10297 10296 10294 10293 10291 10289 10288 10287 10286 10286 10285 10284 10282 10279 10278 10277 10276 10274 10272 10269 10268 10267 10264 10260 10257 10255 10253 10251 10249 10249 10247 10247 10247 10247 10247 10248 10249 10249 10249 10249 10249 10249 10250 10250 10249 10249 10247 10246 10244 10243 10241 10240 10239 10238 10238 10238 10238 10239 10239 10239 10239 10239
10332 10330 10328 10326 10324 10322 10321 10319 10317 10316 10315 10314 10312 10312 10311 10310 10307 10304 10302 10301 10301 10299 10296 10294 10292 10290 10289 10287 10285 10284 10282 10281 10279 10279 10280 10279 10276 10274 10273 10272 10271 10269 10267 10265 10264 10262 10260 10256 10253 10251 10247 10245 10243 10242 10241 10240 10239 10239 10240 10241 10242 10242 10242 10243 10243 10244 10244 10244 10244 10244 10242 10241 10240 10238 10236 10235 10234 10234 10233 10233 10233 10233 10234 10234 10234 10234
10327 10325 10322 10321 10319 10317 10315 10313 10311 10310 10309 10307 10307 10306 10305 10304 10302 10299 10297 10296 10294 10292 10290 10289 10287 10286 10283 10281 10279 10278 10276 10274 10274 10274 10274 10272 10270 10268 10268 10267 10265 10264 10263 10261 10259 10257 10255 10252 10249 10246 10242 10240 10237 10236 10234 10233 10232 10232 10233 10234 10235 10236 10236 10236 10237 10237 10238 10238 10239 10238 10237 10236 10235 10233 10232 10230 10229 10229 10228 10228 10228 10228 10228 10228 10228 10228
10321 10319 10317 10315 10313 10311 10309 10307 10306 10304 10303 10302 10301 10299 10298 10297 10296 10294 10292 10291 10289 10287 10284 10282 10281 10280 10278 10276 10274 10272 10269 10268 10268 10269 10269 10266 10264 10262 10262 10261 10259 10259 10259 10256 10254 10252 10250 10248 10245 10242 10238 10235 10232 10229 10227 10226 10226 10226 10226 10227 10228 10229 10229 10230 10231 10231 10232 10232 10232 10232 10232 10231 10230 10228 10227 10225 10224 10224 10223 10223 10223 10223 10223 10223 10223 10223
10315 10313 10311 10309 10307 10306 10304 10302 10300 10299 10297 10296 10294 10293 10292 10291 10289 10288 10286 10284 10283 10281 10279 10277 10276 10274 10273 10271 10269 10266 10263 10262 10262 10264 10264 10261 10258 10257 10257 10255 10253 10253 10253 10252 10249 10247 10245 10243 10241 10238 10234 10230 10226 10224 10221 10220 10219 10219 10220 10221 10221 10222 10222 10224 10224 10225 10226 10227 10227 10227 10227 10226 10225 10224 10222 10221 10219 10218 10218 10218 10218 10218 10218 10217 10217 10217
10309 10307 10306 10303 10302 10300 10298 10297 10295 10293 10291 10289 10288 10287 10286 10284 10283 10281 10280 10279 10277 10275 10273 10271 10270 10269 10267 10266 10264 10261 10258 10256 10257 10258 10258 10256 10252 10251 10252 10250 10247 10247 10247 10247 10246 10243 10240 10238 10236 10234 10230 10226 10221 10218 10216 10214 10214 10213 10214 10214 10214 10215 10216 10217 10218 10219 10220 10221 10221 10221 10222 10221 10220 10219 10217 10216 10214 10213 10212 10212 10213 10213 10213 10212 10212 10212
10303 10301 10299 10297 10296 10294 10292 10291 10289 10287 10286 10284 10282 10281 10279 10277 10276 10275 10274 10272 10271 10269 10267 10266 10264 10262 10261 10260 10258 10256 10253 10251 10251 10252 10252 10250 10247 10246 10246 10245 10242 10241 10241 10241 10240 10239 10237 10234 10232 10229 10226 10222 10218 10214 10211 10209 10209 10208 10209 10208 10208 10209 10210 10211 10212 10213 10214 10215 10216 10216 10216 10216 10215 10214 10212 10211 10209 10208 10207 10207 10207 10207 10208 10207 10207 10207
10297 10296 10294 10292 10290 10289 10287 10286 10284 10282 10280 10278 10276 10274 10273 10271 10270 10269 10267 10266 10265 10264 10262 10261 10259 10257 10255 10254 10252 10249 10247 10246 10246 10246 10246 10244 10242 10241 10240 10239 10237 10236 10236 10234 10234 10233 10232 10230 10228 10226 10222 10219 10215 10211 10207 10204 10204 10204 10204 10203 10203 10203 10204 10206 10206 10207 10208 10209 10209 10210 10211 10211 10210 10209 10207 10206 10204 10203 10202 10202 10202 10202 10203 10202 10202 10202
10291 10289 10287 10286 10285 10283 10282 10280 10278 10276 10274 10272 10271 10269 10267 10266 10264 10262 10261 10260 10259 10257 10256 10255 10253 10252 10250 10247 10246 10243 10241 10240 10240 10240 10240 10239 10237 10236 10235 10234 10233 10232 10230 10229 10228 10227 10226 10225 10224 10221 10217 10214 10211 10208 10204 10201 10199 10199 10199 10199 10198 10198 10199 10200 10201 10201 10202 10203 10204 10204 10205 10205 10204 10204 10202 10201 10199 10198 10197 10197 10197 10197 10198 10198 10198 10197
10284 10283 10282 10281 10279 10277 10276 10274 10272 10270 10268 10266 10264 10263 10261 10259 10258 10256 10255 10254 10252 10252 10251 10249 10248 10246 10244 10242 10241 10237 10235 10234 10234 10234 10234 10233 10232 10231 10229 10228 10228 10227 10226 10224 10223 10222 10221 10219 10218 10216 10214 10210 10207 10204 10201 10199 10196 10194 10193 10193 10194 10194 10194 10195 10196 10196 10196 10197 10198 10199 10199 10199 10199 10198 10197 10196 10194 10193 10192 10192 10192 10192 10193 10193 10193 10193
10278 10277 10276 10274 10273 10272 10270 10268 10266 10264 10262 10261 10259 10257 10256 10254 10252 10251 10249 10248 10247 10246 10244 10243 10242 10241 10239 10237 10235 10232 10230 10229 10227 10227 10227 10227 10227 10226 10224 10223 10223 10222 10221 10219 10218 10217 10216 10214 10212 10211 10209 10206 10202 10199 10196 10194 10192 10191 10189 10189 10189 10189 10189 10190 10191 10191 10191 10192 10193 10194 10194 10194 10194 10192 10192 10191 10189 10188 10187 10187 10187 10187 10188 10188 10188 10188
10272 10271 10269 10268 10267 10266 10264 10262 10260 10258 10256 10254 10252 10251 10249 10247 10246 10245 10244 10242 10241 10239 10238 10237 10236 10234 10233 10231 10229 10227 10226 10224 10222 10222 10221 10221 10221 10221 10219 10218 10217 10217 10217 10215 10213 10212 10211 10209 10206 10204 10203 10201 10198 10196 10192 10190 10188 10186 10185 10185 10185 10184 10184 10184 10185 10186 10186 10187 10188 10189 10189 10189 10188 10187 10186 10185 10184 10183 10182 10182 10182 10183 10183 10183 10183 10184
10266 10264 10263 10262 10261 10259 10257 10256 10254 10252 10251 10249 10247 10245 10243 10241 10240 10239 10237 10236 10235 10234 10232 10231 10230 10229 10227 10226 10224 10222 10221 10219 10218 10217 10216 10216 10216 10216 10214 10213 10212 10211 10211 10210 10208 10206 10204 10202 10201 10199 10197 10195 10193 10191 10189 10186 10184 10182 10181 10181 10181 10181 10180 10180 10180 10181 10182 10182 10183 10184 10184 10184 10183 10182 10181 10179 10179 10178 10177 10177 10178 10178 10178 10178 10179 10179
10260 10259 10257 10256 10254 10252 10251 10249 10247 10246 10244 10242 10241 10239 10237 10236 10234 10233 10232 10231 10229 10227 10226 10225 10224 10222 10221 10219 10217 10216 10214 10213 10212 10212 10211 10211 10210 10210 10209 10207 10206 10205 10204 10203 10202 10200 10198 10196 10194 10193 10192 10190 10188 10186 10184 10182 10180 10179 10178 10177 10176 10176 10176 10175 10175 10176 10177 10178 10179 10179 10179 10179 10177 10176 10176 10174 10174 10173 10173 10173 10173 10173 10174 10174 10174 10174
10254 10252 10251 10249 10247 10246 10245 10243 10241 10240 10238 10236 10234 10232 10231 10229 10228 10227 10225 10224 10222 10221 10219 10218 10217 10215 10214 10212 10211 10209 10207 10206 10206 10206 10205 10204 10203 10202 10202 10201 10199 10198 10197 10196 10194 10193 10192 10190 10188 10187 10186 10185 10183 10181 10179 10177 10176 10175 10174 10174 10172 10172 10171 10171 10170 10171 10172 10173 10174 10174 10174 10173 10172 10171 10170 10169 10169 10168 10168 10168 10168 10169 10169 10169 10169 10169
10248 10246 10244 10242 10241 10240 10238 10237 10236 10234 10232 10231 10228 10226 10225 10224 10222 10221 10219 10217 10215 10214 10212 10211 10210 10208 10206 10204 10203 10202 10201 10199 10199 10198 10197 10197 10196 10195 10194 10193 10192 10191 10190 10189 10187 10186 10185 10184 10182 10180 10179 10179 10177 10176 10174 10172 10172 10171 10170 10169 10169 10167 10167 10166 10166 10166 10167 10167 10169 10169 10169 10168 10167 10166 10165 10164 10164 10164 10164 10164 10164 10164 10164 10164 10165 10165
10242 10240 10239 10237 10236 10234 10232 10231 10229 10227 10226 10224 10222 10221 10219 10217 10216 10214 10212 10211 10209 10207 10206 10205 10204 10202 10199 10197 10196 10194 10193 10192 10192 10191 10190 10189 10189 10187 10187 10186 10185 10184 10183 10182 10180 10179 10178 10177 10176 10174 10173 10172 10172 10171 10169 10167 10167 10166 10166 10165 10164 10163 10162 10161 10161 10162 10162 10162 10163 10164 10164 10163 10162 10161 10160 10159 10159 10159 10159 10159 10159 10159 10160 10160 10161 10161
10236 10234 10232 10231 10230 10229 10227 10225 10224 10222 10221 10219 10216 10214 10213 10212 10211 10209 10207 10205 10203 10201 10200 10199 10197 10196 10194 10192 10189 10188 10186 10186 10185 10184 10183 10182 10182 10181 10180 10179 10178 10177 10177 10176 10174 10172 10171 10170 10169 10168 10167 10167 10166 10164 10164 10163 10162 10161 10161 10161 10160 10159 10157 10157 10157 10157 10157 10157 10158 10158 10159 10158 10157 10156 10155 10154 10154 10154 10154 10154 10155 10155 10156 10156 10156 10157
10230 10228 10227 10226 10224 10223 10221 10219 10217 10216 10214 10212 10211 10209 10207 10206 10205 10203 10201 10199 10198 10196 10195 10194 10192 10191 10188 10186 10184 10182 10181 10179 10178 10177 10176 10176 10176 10175 10174 10173 10172 10171 10171 10169 10168 10167 10165 10163 10162 10162 10162 10161 10160 10159 10159 10158 10157 10156 10156 10156 10155 10154 10154 10153 10152 10152 10152 10152 10152 10153 10153 10153 10152 10151 10150 10149 10149 10149 10149 10150 10151 10151 10151 10152 10152 10152
10224 10222 10221 10219 10218 10217 10215 10214 10212 10211 10209 10207 10205 10204 10202 10201 10199 10198 10196 10195 10193 10191 10190 10189 10187 10185 10182 10181 10179 10178 10176 10174 10172 10171 10170 10169 10169 10168 10168 10167 10166 10166 10164 10163 10162 10161 10160 10158 10157 10156 10156 10155 10155 10154 10154 10153 10152 10151 10151 10151 10150 10149 10149 10149 10148 10148 10147 10147 10147 10148 10148 10148 10147 10146 10146 10144 10144 10144 10145 10146 10146 10146 10147 10147 10148 10148
10218 10216 10215 10214 10212 10211 10209 10207 10206 10204 10203 10201 10199 10198 10197 10196 10194 10192 10191 10190 10189 10187 10185 10184 10182 10180 10177 10176 10174 10172 10171 10168 10166 10165 10164 10162 10162 10162 10162 10161 10161 10160 10159 10157 10156 10155 10154 10153 10152 10151 10150 10149 10149 10149 10149 10149 10147 10147 10146 10146 10145 10144 10144 10144 10144 10143 10143 10142 10142 10142 10143 10143 10142 10142 10141 10140 10139 10140 10141 10141 10142 10142 10143 10143 10144 10144
10212 10211 10209 10207 10206 10204 10203 10202 10201 10199 10197 10195 10194 10192 10191 10190 10189 10187 10186 10185 10184 10182 10180 10179 10177 10175 10172 10171 10169 10167 10166 10163 10161 10159 10158 10157 10156 10156 10156 10155 10154 10154 10153 10152 10151 10149 10148 10147 10146 10146 10145 10144 10144 10144 10144 10144 10143 10142 10141 10141 10141 10140 10139 10139 10139 10138 10138 10138 10138 10138 10138 10138 10137 10137 10136 10136 10135 10135 10136 10137 10137 10138 10139 10139 10140 10140
10207 10205 10203 10202 10201 10199 10197 10196 10194 10193 10191 10189 10188 10187 10186 10184 10184 10182 10181 10179 10178 10177 10175 10173 10171 10169 10167 10165 10163 10162 10160 10158 10156 10154 10153 10152 10151 10151 10150 10149 10149 10147 10147 10146 10145 10144 10142 10141 10141 10140 10139 10139 10139 10139 10139 10138 10137 10137 10137 10136 10136 10135 10134 10134 10134 10133 10134 10133 10133 10133 10134 10133 10132 10132 10131 10131 10131 10131 10132 10133 10134 10134 10135 10136 10136 10136
10201 10199 10198 10196 10194 10192 10191 10190 10189 10187 10186 10184 10182 10181 10180 10179 10178 10177 10176 10174 10173 10171 10170 10168 10166 10163 10161 10159 10157 10156 10154 10152 10151 10149 10147 10147 10147 10146 10144 10144 10143 10142 10141 10139 10139 10138 10137 10136 10135 10135 10135 10135 10134 10134 10133 10133 10132 10132 10132 10131 10131 10130 10129 10129 10129 10129 10129 10129 10129 10129 10129 10129 10128 10127 10127 10126 10126 10127 10127 10129 10130 10131 10131 10131 10132 10132
10196 10194 10192 10191 10189 10187 10186 10184 10183 10181 10180 10179 10177 10176 10174 10173 10172 10171 10170 10169 10167 10166 10164 10162 10160 10157 10155 10153 10151 10150 10149 10147 10145 10143 10142 10142 10142 10141 10139 10138 10137 10136 10135 10134 10132 10132 10131 10130 10129 10129 10129 10131 10131 10130 10128 10128 10127 10127 10127 10126 10126 10126 10125 10124 10124 10124 10124 10124 10124 10124 10124 10124 10124 10123 10122 10122 10122 10122 10124 10124 10126 10127 10127 10127 10127 10127